Regional Weather Roundup
Issued by NWS Wilmington, NC

Home | Current Version | Previous Version | Text Only | Print | Product List | Glossary On
Versions: 1 2 3 4 5 6 7 8 9 10 11 12 13 14 15 16 17 18 19 20 21 22 23 24 25 26 27
000
ASUS42 KILM 301213
RWRILM
RWRILM
REGIONAL HOURLY WEATHER ROUNDUP
NATIONAL WEATHER SERVICE WILMINGTON NC
800 AM EDT MON MAY 30 2016

NOTE: "FAIR" INDICATES FEW OR NO CLOUDS BELOW 12,000 FEET WITH NO
SIGNIFICANT WEATHER AND/OR OBSTRUCTIONS TO VISIBILITY.

...............WFO WILMINGTON COUNTY WARNING AREA...............

......COASTAL NC AND SC COUNTIES......

CITY           SKY/WX    TMP DP  RH WIND       PRES   REMARKS
WILMINGTON     MOSUNNY   74  72  93 E3        29.97R
N MYRTLE BEACH CLOUDY    75  71  87 S8        29.92S
MYRTLE BEACH   PTSUNNY   73  64  73 S12       29.94S

......INLAND NC AND SC COUNTIES.......

CITY           SKY/WX    TMP DP  RH WIND       PRES   REMARKS
LUMBERTON      LGT RAIN  73  70  90 E5        29.95R FOG
ELIZABETHTOWN  PTSUNNY   72  72 100 CALM      29.96S
WHITEVILLE     CLOUDY    73  70  92 E5        29.94S
FLORENCE       CLOUDY    72  70  93 NE9       29.93S
DARLINGTON     LGT RAIN  69  68  96 N10       29.95S FOG
KINGSTREE      CLOUDY    70  68  94 E3        29.91R
HARTSVILLE     CLOUDY    64  64 100 N8        29.95S
BENNETTSVILLE  LGT RAIN  72  70  94 N9        29.95S
CONWAY         PTSUNNY   72  70  94 E3        29.93R FOG
GEORGETOWN     PTSUNNY   70  68  94 CALM      29.92S
MARION         CLOUDY    72  70  94 E5        29.93S

....................REST OF NORTH CAROLINA......................

.........EASTERN NC.........

CITY           SKY/WX    TMP DP  RH WIND       PRES   REMARKS
CAPE HATTERAS  LGT RAIN  72  71  97 E5        30.02S
JACKSONVILLE   PTSUNNY   74  73  97 E6        29.99R
MOREHEAD CITY  HVY RAIN  70  67  90 S5        30.01R FOG
KENANSVILLE    CLOUDY    72  72  98 CALM      29.99S FOG
NEW BERN       CLOUDY    73  70  90 SE5       30.01S
ELIZABETH CITY LGT RAIN  72  71  97 SE3       30.02S

.........CENTRAL NC.........

CITY           SKY/WX    TMP DP  RH WIND       PRES   REMARKS
RALEIGH DURHAM FOG       68  66  93 N5        30.01S VSB 1/4
ROCKY MOUNT    CLOUDY    73  72  96 E3        30.01R
ROANOKE RAPIDS NOT AVBL
FAYETTEVILLE   FOG       71  70  96 N7        29.97R VSB 1
HOFFMAN        LGT RAIN  68  66  94 NE6       29.98S FOG

.........WESTERN NC.........

CITY           SKY/WX    TMP DP  RH WIND       PRES   REMARKS
CHARLOTTE      CLOUDY    68  61  78 N9        30.02R
GREENSBORO     CLOUDY    66  62  87 NE10      30.03S
HICKORY        NOT AVBL
BOONE          NOT AVBL
ASHEVILLE      NOT AVBL

.....................REST OF SOUTH CAROLINA.....................

.........EASTERN SC.........

CITY           SKY/WX    TMP DP  RH WIND       PRES   REMARKS
CHARLESTON     LGT RAIN  71  68  90 NW7       29.92R
BEAUFORT MCAS  CLOUDY    69  67  93 W10       29.95S
HILTON HEAD    MOSUNNY   70  66  88 W7        29.97R

.........CENTRAL SC.........

CITY           SKY/WX    TMP DP  RH WIND       PRES   REMARKS
COLUMBIA       CLOUDY    70  63  78 NW10      29.97R
ORANGEBURG     CLOUDY    68  66  93 NW9       29.95R
SUMTER SHAW    DRIZZLE   68  66  94 N10       29.92R

.........WESTERN SC.........

CITY           SKY/WX    TMP DP  RH WIND       PRES   REMARKS
GREENVILLE     NOT AVBL
ROCK HILL      CLOUDY    68  62  81 NE7       30.02R
ANDERSON       SUNNY     68  64  87 CALM      30.03S
CLEMSON        NOT AVBL
GREENWOOD      CLOUDY    65  60  84 N6        30.04R


...................COASTAL AND OFFSHORE REPORTS..................

................LOCAL PIERS AND NC RESERVE................


STATION/POSITION TIME  SKY/WX   TEMP    WIND        PRES    VSBY
                                AIR SEA DIR/SP/G
                 (UTC)          (F)     (DEG/KT/KT) (MB)    (MI)
JOHNY MRCER PIER 1100            76 78  130/  7/  8 1013.4R
NC RESRV MASNBRO NOT AVBL
OCEAN CREST PIER NOT AVBL
SPRINGMAID  PIER 1100            73 77  130/ 12/ 13 1012.7R


................COASTAL AND OFFSHORE BUOYS................


STATION/POSITION TIME  SKY/WX   TEMP    WIND        PRES    VSBY
                                AIR SEA DIR/SP/G
                 (UTC)          (F)     (DEG/KT/KT) (MB)    (MI)
DIMNDSHOAL 41025 1150            77 80  150/ 21/ 25 1015.7F
WVE H/P(F/S)=  5/ 9 SWL H/P/D(F/S/D)=  2/170/ 9

CAPE LOOKOUT     1200            71     250/  4/  6 1015.8R
ONSLOW BAY 41036 NOT AVBL
ONSLOW BAY 41064 1108            77 75  160/  8/ 16 1015.3F
ONSLOW BAY 41159 1125               75                N/A
WVE H/P(F/S)=  6/ 7

5SE WRITBC 41038 1108            76 75  140/  6/ 10 1015.0R
MASNBO INL 41110 1106               75                N/A
WVE H/P(F/S)=  4/ 7

WILM HARBR 41108 1126               74                N/A
WVE H/P(F/S)=  5/ 8

27SE WRITB 41037 1108            77 75  190/  8/ 14 1014.2R
FRYING PAN 41013 1100            78 78  180/ 17/ 21 1013.9R
SUNST NRSH 41024 1108            76 77  170/ 12/ 17 1013.3R
CAPRS NRSH 41029 1108            71 76  290/  6/  8 1012.8R
EDISTO     41004 1150            75 77  220/ 17/ 19 1012.6S
WVE H/P(F/S)=  5/ 6 SWL H/P/D(F/S/D)=  2/ 9



..........OFFSHORE BUOYS BEYOND 100 NM OFFSHORE...........
.....IN A TRIANGLE---HAT TO BERMUDA TO BAHAMAS TO HAT.....


STATION/POSITION TIME  SKY/WX   TEMP    WIND        PRES    VSBY
                                AIR SEA DIR/SP/G
                 (UTC)          (F)     (DEG/KT/KT) (MB)    (MI)
150E HAT   41001 NOT AVBL
W BERMUDA  41048 1150            75 75  120/ 19/ 23 1020.4R
WVE H/P(F/S)=  5/ 8 SWL H/P/D(F/S/D)=  2/130/ 8

ATLANTIC S 41049 1150            78 78   90/ 16/ 17 1021.4R
WVE H/P(F/S)=  4/ 4 SWL H/P/D(F/S/D)=  2/130/ 8

E BAHAMAS  41046 1100            80 81  100/  6/ 10 1016.1R
NE BAHAMAS 41047 1100            78 79  120/ 14/ 16 1016.8R
120E CANVRL41010 1120            78 79  230/ 10/ 12 1016.1R

END




USA.gov is the U.S. government's official web portal to all federal, state and local government web resources and services.